owner,sensor,date,latitude,longitude,vertical_datum,mass_concentration_of_oxygen_in_sea_water,qcFlag 
NERRS,ioos:station:NOAA.NERRS:marscwq:1,2017-06-01T00:00:00Z,27.8383,-97.0503,6.18,6.5,1111122 
NERRS,ioos:station:NOAA.NERRS:marscwq:1,2017-06-01T01:00:00Z,27.8383,-97.0503,6.2,6.5,1111122 
NERRS,ioos:station:NOAA.NERRS:marscwq:1,2017-06-01T02:00:00Z,27.8383,-97.0503,6.15,6.5,1111122 
NERRS,ioos:station:NOAA.NERRS:marscwq:1,2017-06-01T03:00:00Z,27.8383,-97.0503,6.11,6.5,1111122 
NERRS,ioos:station:NOAA.NERRS:marscwq:1,2017-06-01T04:00:00Z,27.8383,-97.0503,6.1,6.5,1111122 
NERRS,ioos:station:NOAA.NERRS:marscwq:1,2017-06-01T05:00:00Z,27.8383,-97.0503,6.03,6.7,1111122 
NERRS,ioos:station:NOAA.NERRS:marscwq:1,2017-06-01T06:00:00Z,27.8383,-97.0503,6.0,6.5,1111122 
NERRS,ioos:station:NOAA.NERRS:marscwq:1,2017-06-01T07:00:00Z,27.8383,-97.0503,5.98,6.5,1111122 
NERRS,ioos:station:NOAA.NERRS:marscwq:1,2017-06-01T08:00:00Z,27.8383,-97.0503,5.98,6.5,1111122 
NERRS,ioos:station:NOAA.NERRS:marscwq:1,2017-06-01T09:00:00Z,27.8383,-97.0503,5.96,6.4,1111122 
NERRS,ioos:station:NOAA.NERRS:marscwq:1,2017-06-01T10:00:00Z,27.8383,-97.0503,5.99,6.1,1111122 
NERRS,ioos:station:NOAA.NERRS:marscwq:1,2017-06-01T11:00:00Z,27.8383,-97.0503,6.08,5.9,1111122 
NERRS,ioos:station:NOAA.NERRS:marscwq:1,2017-06-01T12:00:00Z,27.8383,-97.0503,6.14,6.1,1111122 
NERRS,ioos:station:NOAA.NERRS:marscwq:1,2017-06-01T13:00:00Z,27.8383,-97.0503,6.17,6.1,1111122 
NERRS,ioos:station:NOAA.NERRS:marscwq:1,2017-06-01T14:00:00Z,27.8383,-97.0503,6.24,6.2,1111122 
NERRS,ioos:station:NOAA.NERRS:marscwq:1,2017-06-01T15:00:00Z,27.8383,-97.0503,6.18,6.2,1111122 
NERRS,ioos:station:NOAA.NERRS:marscwq:1,2017-06-01T16:00:00Z,27.8383,-97.0503,6.25,6.5,1111122 
NERRS,ioos:station:NOAA.NERRS:marscwq:1,2017-06-01T17:00:00Z,27.8383,-97.0503,6.23,6.4,1111122 
NERRS,ioos:station:NOAA.NERRS:marscwq:1,2017-06-01T18:00:00Z,27.8383,-97.0503,6.26,6.3,1111122 
NERRS,ioos:station:NOAA.NERRS:marscwq:1,2017-06-01T19:00:00Z,27.8383,-97.0503,6.22,6.2,1111122 
NERRS,ioos:station:NOAA.NERRS:marscwq:1,2017-06-01T20:00:00Z,27.8383,-97.0503,6.17,6.1,1111122 
NERRS,ioos:station:NOAA.NERRS:marscwq:1,2017-06-01T21:00:00Z,27.8383,-97.0503,6.14,6.2,1111122 
NERRS,ioos:station:NOAA.NERRS:marscwq:1,2017-06-01T22:00:00Z,27.8383,-97.0503,6.12,6.2,1111122 
NERRS,ioos:station:NOAA.NERRS:marscwq:1,2017-06-01T23:00:00Z,27.8383,-97.0503,6.16,6.2,1111122 
NERRS,ioos:station:NOAA.NERRS:marscwq:1,2017-06-02T00:00:00Z,27.8383,-97.0503,6.14,6.3,1111122 
NERRS,ioos:station:NOAA.NERRS:marscwq:1,2017-06-02T01:00:00Z,27.8383,-97.0503,6.08,6.4,1111122 
NERRS,ioos:station:NOAA.NERRS:marscwq:1,2017-06-02T02:00:00Z,27.8383,-97.0503,6.14,6.5,1111122 
NERRS,ioos:station:NOAA.NERRS:marscwq:1,2017-06-02T03:00:00Z,27.8383,-97.0503,6.19,6.3,1111122 
NERRS,ioos:station:NOAA.NERRS:marscwq:1,2017-06-02T04:00:00Z,27.8383,-97.0503,6.18,6.2,1111122 
NERRS,ioos:station:NOAA.NERRS:marscwq:1,2017-06-02T05:00:00Z,27.8383,-97.0503,6.15,6.3,1111122 
NERRS,ioos:station:NOAA.NERRS:marscwq:1,2017-06-02T06:00:00Z,27.8383,-97.0503,6.13,6.2,1111122 
NERRS,ioos:station:NOAA.NERRS:marscwq:1,2017-06-02T07:00:00Z,27.8383,-97.0503,6.09,5.9,1111122 
NERRS,ioos:station:NOAA.NERRS:marscwq:1,2017-06-02T08:00:00Z,27.8383,-97.0503,6.07,6.1,1111122 
NERRS,ioos:station:NOAA.NERRS:marscwq:1,2017-06-02T09:00:00Z,27.8383,-97.0503,6.07,5.8,1111122 
NERRS,ioos:station:NOAA.NERRS:marscwq:1,2017-06-02T10:00:00Z,27.8383,-97.0503,6.14,5.8,1111122 
NERRS,ioos:station:NOAA.NERRS:marscwq:1,2017-06-02T11:00:00Z,27.8383,-97.0503,6.11,5.6,1111122 
NERRS,ioos:station:NOAA.NERRS:marscwq:1,2017-06-02T12:00:00Z,27.8383,-97.0503,6.18,6.1,1111122 
NERRS,ioos:station:NOAA.NERRS:marscwq:1,2017-06-02T13:00:00Z,27.8383,-97.0503,6.21,6.0,1111122 
NERRS,ioos:station:NOAA.NERRS:marscwq:1,2017-06-02T14:00:00Z,27.8383,-97.0503,6.24,5.9,1111122 
NERRS,ioos:station:NOAA.NERRS:marscwq:1,2017-06-02T15:00:00Z,27.8383,-97.0503,6.27,5.9,1111122 
NERRS,ioos:station:NOAA.NERRS:marscwq:1,2017-06-02T16:00:00Z,27.8383,-97.0503,6.25,6.1,1111122 
NERRS,ioos:station:NOAA.NERRS:marscwq:1,2017-06-02T17:00:00Z,27.8383,-97.0503,6.24,6.2,1111122 
NERRS,ioos:station:NOAA.NERRS:marscwq:1,2017-06-02T18:00:00Z,27.8383,-97.0503,6.21,6.4,1111122 
NERRS,ioos:station:NOAA.NERRS:marscwq:1,2017-06-02T19:00:00Z,27.8383,-97.0503,6.23,6.5,1111122 
NERRS,ioos:station:NOAA.NERRS:marscwq:1,2017-06-02T20:00:00Z,27.8383,-97.0503,6.2,6.6,1111122 
NERRS,ioos:station:NOAA.NERRS:marscwq:1,2017-06-02T21:00:00Z,27.8383,-97.0503,6.15,6.3,1111122 
NERRS,ioos:station:NOAA.NERRS:marscwq:1,2017-06-02T22:00:00Z,27.8383,-97.0503,6.09,6.5,1111122 
NERRS,ioos:station:NOAA.NERRS:marscwq:1,2017-06-02T23:00:00Z,27.8383,-97.0503,6.09,6.3,1111122 
NERRS,ioos:station:NOAA.NERRS:marscwq:1,2017-06-03T00:00:00Z,27.8383,-97.0503,6.1,6.5,1111122 
NERRS,ioos:station:NOAA.NERRS:marscwq:1,2017-06-03T01:00:00Z,27.8383,-97.0503,6.1,6.4,1111122 
NERRS,ioos:station:NOAA.NERRS:marscwq:1,2017-06-03T02:00:00Z,27.8383,-97.0503,6.13,6.2,1111122 
NERRS,ioos:station:NOAA.NERRS:marscwq:1,2017-06-03T03:00:00Z,27.8383,-97.0503,6.18,6.5,1111122 
NERRS,ioos:station:NOAA.NERRS:marscwq:1,2017-06-03T04:00:00Z,27.8383,-97.0503,6.2,6.5,1111122 
NERRS,ioos:station:NOAA.NERRS:marscwq:1,2017-06-03T05:00:00Z,27.8383,-97.0503,6.2,6.5,1111122 
NERRS,ioos:station:NOAA.NERRS:marscwq:1,2017-06-03T06:00:00Z,27.8383,-97.0503,6.21,6.6,1111122 
NERRS,ioos:station:NOAA.NERRS:marscwq:1,2017-06-03T07:00:00Z,27.8383,-97.0503,6.17,6.5,1111122 
NERRS,ioos:station:NOAA.NERRS:marscwq:1,2017-06-03T08:00:00Z,27.8383,-97.0503,6.13,5.7,1111122 
NERRS,ioos:station:NOAA.NERRS:marscwq:1,2017-06-03T09:00:00Z,27.8383,-97.0503,6.16,5.6,1111122 
NERRS,ioos:station:NOAA.NERRS:marscwq:1,2017-06-03T10:00:00Z,27.8383,-97.0503,6.17,6.0,1111122 
NERRS,ioos:station:NOAA.NERRS:marscwq:1,2017-06-03T11:00:00Z,27.8383,-97.0503,6.16,5.8,1111122 
NERRS,ioos:station:NOAA.NERRS:marscwq:1,2017-06-03T12:00:00Z,27.8383,-97.0503,6.14,5.8,1111122 
NERRS,ioos:station:NOAA.NERRS:marscwq:1,2017-06-03T13:00:00Z,27.8383,-97.0503,6.18,5.7,1111122 
NERRS,ioos:station:NOAA.NERRS:marscwq:1,2017-06-03T14:00:00Z,27.8383,-97.0503,6.2,5.8,1111122 
NERRS,ioos:station:NOAA.NERRS:marscwq:1,2017-06-03T15:00:00Z,27.8383,-97.0503,6.24,5.7,1111122 
NERRS,ioos:station:NOAA.NERRS:marscwq:1,2017-06-03T16:00:00Z,27.8383,-97.0503,6.25,6.0,1111122 
NERRS,ioos:station:NOAA.NERRS:marscwq:1,2017-06-03T17:00:00Z,27.8383,-97.0503,6.24,6.1,1111122 
NERRS,ioos:station:NOAA.NERRS:marscwq:1,2017-06-03T18:00:00Z,27.8383,-97.0503,6.2,6.5,1111122 
NERRS,ioos:station:NOAA.NERRS:marscwq:1,2017-06-03T19:00:00Z,27.8383,-97.0503,6.18,6.5,1111122 
NERRS,ioos:station:NOAA.NERRS:marscwq:1,2017-06-03T20:00:00Z,27.8383,-97.0503,6.11,6.6,1111122 
NERRS,ioos:station:NOAA.NERRS:marscwq:1,2017-06-03T21:00:00Z,27.8383,-97.0503,6.1,6.7,1111122 
NERRS,ioos:station:NOAA.NERRS:marscwq:1,2017-06-03T22:00:00Z,27.8383,-97.0503,6.06,6.3,1111122 
NERRS,ioos:station:NOAA.NERRS:marscwq:1,2017-06-03T23:00:00Z,27.8383,-97.0503,6.02,6.8,1111122 
NERRS,ioos:station:NOAA.NERRS:marscwq:1,2017-06-04T00:00:00Z,27.8383,-97.0503,5.98,6.7,1111122 
NERRS,ioos:station:NOAA.NERRS:marscwq:1,2017-06-04T01:00:00Z,27.8383,-97.0503,6.0,6.4,1111122 
NERRS,ioos:station:NOAA.NERRS:marscwq:1,2017-06-04T02:00:00Z,27.8383,-97.0503,6.03,6.5,1111122 
NERRS,ioos:station:NOAA.NERRS:marscwq:1,2017-06-04T03:00:00Z,27.8383,-97.0503,6.12,6.9,1111122 
NERRS,ioos:station:NOAA.NERRS:marscwq:1,2017-06-04T04:00:00Z,27.8383,-97.0503,6.17,6.7,1111122 
NERRS,ioos:station:NOAA.NERRS:marscwq:1,2017-06-04T05:00:00Z,27.8383,-97.0503,6.18,6.4,1111122 
NERRS,ioos:station:NOAA.NERRS:marscwq:1,2017-06-04T06:00:00Z,27.8383,-97.0503,6.22,6.1,1111122 
NERRS,ioos:station:NOAA.NERRS:marscwq:1,2017-06-04T07:00:00Z,27.8383,-97.0503,6.18,6.6,1111122 
NERRS,ioos:station:NOAA.NERRS:marscwq:1,2017-06-04T08:00:00Z,27.8383,-97.0503,6.19,6.4,1111122 
NERRS,ioos:station:NOAA.NERRS:marscwq:1,2017-06-04T09:00:00Z,27.8383,-97.0503,6.19,6.4,1111122 
NERRS,ioos:station:NOAA.NERRS:marscwq:1,2017-06-04T10:00:00Z,27.8383,-97.0503,6.14,6.2,1111122 
NERRS,ioos:station:NOAA.NERRS:marscwq:1,2017-06-04T11:00:00Z,27.8383,-97.0503,6.14,6.2,1111122 
NERRS,ioos:station:NOAA.NERRS:marscwq:1,2017-06-04T12:00:00Z,27.8383,-97.0503,6.13,6.2,1111122 
NERRS,ioos:station:NOAA.NERRS:marscwq:1,2017-06-04T13:00:00Z,27.8383,-97.0503,6.16,6.3,1111122 
NERRS,ioos:station:NOAA.NERRS:marscwq:1,2017-06-04T14:00:00Z,27.8383,-97.0503,6.21,6.1,1111122 
NERRS,ioos:station:NOAA.NERRS:marscwq:1,2017-06-04T15:00:00Z,27.8383,-97.0503,6.18,6.0,1111122 
NERRS,ioos:station:NOAA.NERRS:marscwq:1,2017-06-04T16:00:00Z,27.8383,-97.0503,6.17,5.6,1111122 
NERRS,ioos:station:NOAA.NERRS:marscwq:1,2017-06-04T17:00:00Z,27.8383,-97.0503,6.19,5.6,1111122 
NERRS,ioos:station:NOAA.NERRS:marscwq:1,2017-06-04T18:00:00Z,27.8383,-97.0503,6.21,5.9,1111122 
NERRS,ioos:station:NOAA.NERRS:marscwq:1,2017-06-04T19:00:00Z,27.8383,-97.0503,6.12,5.7,1111122 
NERRS,ioos:station:NOAA.NERRS:marscwq:1,2017-06-04T20:00:00Z,27.8383,-97.0503,6.08,5.9,1111122 
NERRS,ioos:station:NOAA.NERRS:marscwq:1,2017-06-04T21:00:00Z,27.8383,-97.0503,6.03,5.5,1111122 
NERRS,ioos:station:NOAA.NERRS:marscwq:1,2017-06-04T22:00:00Z,27.8383,-97.0503,6.0,6.8,1111122 
NERRS,ioos:station:NOAA.NERRS:marscwq:1,2017-06-04T23:00:00Z,27.8383,-97.0503,5.91,7.1,1111122 
NERRS,ioos:station:NOAA.NERRS:marscwq:1,2017-06-05T00:00:00Z,27.8383,-97.0503,5.96,6.5,1111122 
NERRS,ioos:station:NOAA.NERRS:marscwq:1,2017-06-05T01:00:00Z,27.8383,-97.0503,5.93,6.5,1111122 
NERRS,ioos:station:NOAA.NERRS:marscwq:1,2017-06-05T02:00:00Z,27.8383,-97.0503,5.95,6.3,1111122 
NERRS,ioos:station:NOAA.NERRS:marscwq:1,2017-06-05T03:00:00Z,27.8383,-97.0503,6.04,6.4,1111122 
NERRS,ioos:station:NOAA.NERRS:marscwq:1,2017-06-05T04:00:00Z,27.8383,-97.0503,6.09,6.5,1111122 
NERRS,ioos:station:NOAA.NERRS:marscwq:1,2017-06-05T05:00:00Z,27.8383,-97.0503,6.18,6.3,1111122 
NERRS,ioos:station:NOAA.NERRS:marscwq:1,2017-06-05T06:00:00Z,27.8383,-97.0503,6.18,6.1,1111122 
NERRS,ioos:station:NOAA.NERRS:marscwq:1,2017-06-05T07:00:00Z,27.8383,-97.0503,6.18,6.6,1111122 
NERRS,ioos:station:NOAA.NERRS:marscwq:1,2017-06-05T08:00:00Z,27.8383,-97.0503,6.19,6.7,1111122 
NERRS,ioos:station:NOAA.NERRS:marscwq:1,2017-06-05T09:00:00Z,27.8383,-97.0503,6.2,6.6,1111122 
NERRS,ioos:station:NOAA.NERRS:marscwq:1,2017-06-05T10:00:00Z,27.8383,-97.0503,6.17,6.6,1111122 
NERRS,ioos:station:NOAA.NERRS:marscwq:1,2017-06-05T11:00:00Z,27.8383,-97.0503,6.22,6.7,1111122 
NERRS,ioos:station:NOAA.NERRS:marscwq:1,2017-06-05T12:00:00Z,27.8383,-97.0503,6.18,6.7,1111122 
NERRS,ioos:station:NOAA.NERRS:marscwq:1,2017-06-05T13:00:00Z,27.8383,-97.0503,6.18,6.8,1111122 
NERRS,ioos:station:NOAA.NERRS:marscwq:1,2017-06-05T14:00:00Z,27.8383,-97.0503,6.17,6.6,1111122 
NERRS,ioos:station:NOAA.NERRS:marscwq:1,2017-06-05T15:00:00Z,27.8383,-97.0503,6.17,6.6,1111122 
NERRS,ioos:station:NOAA.NERRS:marscwq:1,2017-06-05T16:00:00Z,27.8383,-97.0503,6.18,6.6,1111122 
NERRS,ioos:station:NOAA.NERRS:marscwq:1,2017-06-05T17:00:00Z,27.8383,-97.0503,6.24,6.5,1111122 
NERRS,ioos:station:NOAA.NERRS:marscwq:1,2017-06-05T18:00:00Z,27.8383,-97.0503,6.24,6.7,1111122 
NERRS,ioos:station:NOAA.NERRS:marscwq:1,2017-06-05T19:00:00Z,27.8383,-97.0503,6.18,6.4,1111122 
NERRS,ioos:station:NOAA.NERRS:marscwq:1,2017-06-05T20:00:00Z,27.8383,-97.0503,6.09,6.5,1111122 
NERRS,ioos:station:NOAA.NERRS:marscwq:1,2017-06-05T21:00:00Z,27.8383,-97.0503,6.03,6.6,1111122 
NERRS,ioos:station:NOAA.NERRS:marscwq:1,2017-06-05T22:00:00Z,27.8383,-97.0503,6.0,6.6,1111122 
NERRS,ioos:station:NOAA.NERRS:marscwq:1,2017-06-05T23:00:00Z,27.8383,-97.0503,5.99,6.6,1111122 
NERRS,ioos:station:NOAA.NERRS:marscwq:1,2017-06-06T00:00:00Z,27.8383,-97.0503,5.86,6.6,1111122 
NERRS,ioos:station:NOAA.NERRS:marscwq:1,2017-06-06T01:00:00Z,27.8383,-97.0503,5.88,6.8,1111122 
NERRS,ioos:station:NOAA.NERRS:marscwq:1,2017-06-06T02:00:00Z,27.8383,-97.0503,5.9,7.1,1111122 
NERRS,ioos:station:NOAA.NERRS:marscwq:1,2017-06-06T03:00:00Z,27.8383,-97.0503,6.0,7.0,1111122 
NERRS,ioos:station:NOAA.NERRS:marscwq:1,2017-06-06T04:00:00Z,27.8383,-97.0503,6.1,6.6,1111122 
NERRS,ioos:station:NOAA.NERRS:marscwq:1,2017-06-06T05:00:00Z,27.8383,-97.0503,6.05,6.3,1111122 
NERRS,ioos:station:NOAA.NERRS:marscwq:1,2017-06-06T06:00:00Z,27.8383,-97.0503,6.19,6.5,1111122 
NERRS,ioos:station:NOAA.NERRS:marscwq:1,2017-06-06T07:00:00Z,27.8383,-97.0503,6.23,6.5,1111122 
NERRS,ioos:station:NOAA.NERRS:marscwq:1,2017-06-06T08:00:00Z,27.8383,-97.0503,6.22,6.3,1111122 
NERRS,ioos:station:NOAA.NERRS:marscwq:1,2017-06-06T09:00:00Z,27.8383,-97.0503,6.19,6.5,1111122 
NERRS,ioos:station:NOAA.NERRS:marscwq:1,2017-06-06T10:00:00Z,27.8383,-97.0503,6.17,6.5,1111122 
NERRS,ioos:station:NOAA.NERRS:marscwq:1,2017-06-06T11:00:00Z,27.8383,-97.0503,6.21,6.5,1111122 
NERRS,ioos:station:NOAA.NERRS:marscwq:1,2017-06-06T12:00:00Z,27.8383,-97.0503,6.19,6.5,1111122 
NERRS,ioos:station:NOAA.NERRS:marscwq:1,2017-06-06T13:00:00Z,27.8383,-97.0503,6.14,6.3,1111122 
NERRS,ioos:station:NOAA.NERRS:marscwq:1,2017-06-06T14:00:00Z,27.8383,-97.0503,6.19,6.5,1111122 
NERRS,ioos:station:NOAA.NERRS:marscwq:1,2017-06-06T15:00:00Z,27.8383,-97.0503,6.16,6.1,1111122 
NERRS,ioos:station:NOAA.NERRS:marscwq:1,2017-06-06T16:00:00Z,27.8383,-97.0503,6.14,6.5,1111122 
NERRS,ioos:station:NOAA.NERRS:marscwq:1,2017-06-06T17:00:00Z,27.8383,-97.0503,6.18,6.3,1111122 
NERRS,ioos:station:NOAA.NERRS:marscwq:1,2017-06-06T18:00:00Z,27.8383,-97.0503,6.17,6.5,1111122 
NERRS,ioos:station:NOAA.NERRS:marscwq:1,2017-06-06T19:00:00Z,27.8383,-97.0503,6.13,6.2,1111122 
NERRS,ioos:station:NOAA.NERRS:marscwq:1,2017-06-06T20:00:00Z,27.8383,-97.0503,6.11,6.9,1111122 
NERRS,ioos:station:NOAA.NERRS:marscwq:1,2017-06-06T21:00:00Z,27.8383,-97.0503,5.99,7.0,1111122 
NERRS,ioos:station:NOAA.NERRS:marscwq:1,2017-06-06T22:00:00Z,27.8383,-97.0503,5.93,7.2,1111122 
NERRS,ioos:station:NOAA.NERRS:marscwq:1,2017-06-06T23:00:00Z,27.8383,-97.0503,5.85,7.3,1111122 
NERRS,ioos:station:NOAA.NERRS:marscwq:1,2017-06-07T00:00:00Z,27.8383,-97.0503,5.83,7.3,1111122 
NERRS,ioos:station:NOAA.NERRS:marscwq:1,2017-06-07T01:00:00Z,27.8383,-97.0503,5.83,7.2,1111122 
NERRS,ioos:station:NOAA.NERRS:marscwq:1,2017-06-07T02:00:00Z,27.8383,-97.0503,5.84,6.9,1111122 
NERRS,ioos:station:NOAA.NERRS:marscwq:1,2017-06-07T03:00:00Z,27.8383,-97.0503,5.86,6.8,1111122 
NERRS,ioos:station:NOAA.NERRS:marscwq:1,2017-06-07T04:00:00Z,27.8383,-97.0503,5.93,6.6,1111122 
NERRS,ioos:station:NOAA.NERRS:marscwq:1,2017-06-07T05:00:00Z,27.8383,-97.0503,6.09,6.3,1111122 
NERRS,ioos:station:NOAA.NERRS:marscwq:1,2017-06-07T06:00:00Z,27.8383,-97.0503,6.12,6.1,1111122 
NERRS,ioos:station:NOAA.NERRS:marscwq:1,2017-06-07T07:00:00Z,27.8383,-97.0503,6.14,6.1,1111122 
NERRS,ioos:station:NOAA.NERRS:marscwq:1,2017-06-07T08:00:00Z,27.8383,-97.0503,6.2,6.1,1111122 
NERRS,ioos:station:NOAA.NERRS:marscwq:1,2017-06-07T09:00:00Z,27.8383,-97.0503,6.21,6.7,1111122 
NERRS,ioos:station:NOAA.NERRS:marscwq:1,2017-06-07T10:00:00Z,27.8383,-97.0503,6.19,6.7,1111122 
NERRS,ioos:station:NOAA.NERRS:marscwq:1,2017-06-07T11:00:00Z,27.8383,-97.0503,6.21,6.6,1111122 
NERRS,ioos:station:NOAA.NERRS:marscwq:1,2017-06-07T12:00:00Z,27.8383,-97.0503,6.21,6.7,1111122 
NERRS,ioos:station:NOAA.NERRS:marscwq:1,2017-06-07T13:00:00Z,27.8383,-97.0503,6.2,6.7,1111122 
NERRS,ioos:station:NOAA.NERRS:marscwq:1,2017-06-07T14:00:00Z,27.8383,-97.0503,6.22,6.6,1111122 
NERRS,ioos:station:NOAA.NERRS:marscwq:1,2017-06-07T15:00:00Z,27.8383,-97.0503,6.2,6.6,1111122 
NERRS,ioos:station:NOAA.NERRS:marscwq:1,2017-06-07T16:00:00Z,27.8383,-97.0503,6.21,6.7,1111122 
NERRS,ioos:station:NOAA.NERRS:marscwq:1,2017-06-07T17:00:00Z,27.8383,-97.0503,6.2,6.6,1111122 
NERRS,ioos:station:NOAA.NERRS:marscwq:1,2017-06-07T18:00:00Z,27.8383,-97.0503,6.2,6.3,1111122 
NERRS,ioos:station:NOAA.NERRS:marscwq:1,2017-06-07T19:00:00Z,27.8383,-97.0503,6.14,6.7,1111122 
NERRS,ioos:station:NOAA.NERRS:marscwq:1,2017-06-07T20:00:00Z,27.8383,-97.0503,6.12,6.5,1111122 
NERRS,ioos:station:NOAA.NERRS:marscwq:1,2017-06-07T21:00:00Z,27.8383,-97.0503,6.06,6.8,1111122 
NERRS,ioos:station:NOAA.NERRS:marscwq:1,2017-06-07T22:00:00Z,27.8383,-97.0503,5.98,7.0,1111122 
NERRS,ioos:station:NOAA.NERRS:marscwq:1,2017-06-07T23:00:00Z,27.8383,-97.0503,5.87,7.4,1111122 
NERRS,ioos:station:NOAA.NERRS:marscwq:1,2017-06-08T00:00:00Z,27.8383,-97.0503,5.87,7.4,1111122 
NERRS,ioos:station:NOAA.NERRS:marscwq:1,2017-06-08T01:00:00Z,27.8383,-97.0503,5.88,7.4,1111122 
NERRS,ioos:station:NOAA.NERRS:marscwq:1,2017-06-08T02:00:00Z,27.8383,-97.0503,5.84,7.3,1111122 
NERRS,ioos:station:NOAA.NERRS:marscwq:1,2017-06-08T03:00:00Z,27.8383,-97.0503,5.86,6.9,1111122 
NERRS,ioos:station:NOAA.NERRS:marscwq:1,2017-06-08T04:00:00Z,27.8383,-97.0503,5.94,6.7,1111122 
NERRS,ioos:station:NOAA.NERRS:marscwq:1,2017-06-08T05:00:00Z,27.8383,-97.0503,6.0,6.1,1111122 
NERRS,ioos:station:NOAA.NERRS:marscwq:1,2017-06-08T06:00:00Z,27.8383,-97.0503,6.13,6.4,1111122 
NERRS,ioos:station:NOAA.NERRS:marscwq:1,2017-06-08T07:00:00Z,27.8383,-97.0503,6.18,6.1,1111122 
NERRS,ioos:station:NOAA.NERRS:marscwq:1,2017-06-08T08:00:00Z,27.8383,-97.0503,6.21,6.1,1111122 
NERRS,ioos:station:NOAA.NERRS:marscwq:1,2017-06-08T09:00:00Z,27.8383,-97.0503,6.2,6.6,1111122 
NERRS,ioos:station:NOAA.NERRS:marscwq:1,2017-06-08T10:00:00Z,27.8383,-97.0503,6.23,6.6,1111122 
NERRS,ioos:station:NOAA.NERRS:marscwq:1,2017-06-08T11:00:00Z,27.8383,-97.0503,6.24,6.6,1111122 
NERRS,ioos:station:NOAA.NERRS:marscwq:1,2017-06-08T12:00:00Z,27.8383,-97.0503,6.22,6.5,1111122 
NERRS,ioos:station:NOAA.NERRS:marscwq:1,2017-06-08T13:00:00Z,27.8383,-97.0503,6.25,6.5,1111122 
NERRS,ioos:station:NOAA.NERRS:marscwq:1,2017-06-08T14:00:00Z,27.8383,-97.0503,6.23,6.5,1111122 
NERRS,ioos:station:NOAA.NERRS:marscwq:1,2017-06-08T15:00:00Z,27.8383,-97.0503,6.24,6.4,1111122 
NERRS,ioos:station:NOAA.NERRS:marscwq:1,2017-06-08T16:00:00Z,27.8383,-97.0503,6.24,6.5,1111122 
NERRS,ioos:station:NOAA.NERRS:marscwq:1,2017-06-08T17:00:00Z,27.8383,-97.0503,6.24,6.7,1111122 
NERRS,ioos:station:NOAA.NERRS:marscwq:1,2017-06-08T18:00:00Z,27.8383,-97.0503,6.24,6.5,1111122 
NERRS,ioos:station:NOAA.NERRS:marscwq:1,2017-06-08T19:00:00Z,27.8383,-97.0503,6.2,6.4,1111122 
NERRS,ioos:station:NOAA.NERRS:marscwq:1,2017-06-08T20:00:00Z,27.8383,-97.0503,6.17,6.5,1111122 
NERRS,ioos:station:NOAA.NERRS:marscwq:1,2017-06-08T21:00:00Z,27.8383,-97.0503,6.13,6.6,1111122 
NERRS,ioos:station:NOAA.NERRS:marscwq:1,2017-06-08T22:00:00Z,27.8383,-97.0503,6.07,6.5,1111122 
NERRS,ioos:station:NOAA.NERRS:marscwq:1,2017-06-08T23:00:00Z,27.8383,-97.0503,5.97,6.6,1111122 
NERRS,ioos:station:NOAA.NERRS:marscwq:1,2017-06-09T00:00:00Z,27.8383,-97.0503,5.93,6.8,1111122 
NERRS,ioos:station:NOAA.NERRS:marscwq:1,2017-06-09T01:00:00Z,27.8383,-97.0503,5.81,6.9,1111122 
NERRS,ioos:station:NOAA.NERRS:marscwq:1,2017-06-09T02:00:00Z,27.8383,-97.0503,5.87,7.2,1111122 
NERRS,ioos:station:NOAA.NERRS:marscwq:1,2017-06-09T03:00:00Z,27.8383,-97.0503,5.9,7.2,1111122 
NERRS,ioos:station:NOAA.NERRS:marscwq:1,2017-06-09T04:00:00Z,27.8383,-97.0503,5.95,7.2,1111122 
NERRS,ioos:station:NOAA.NERRS:marscwq:1,2017-06-09T05:00:00Z,27.8383,-97.0503,6.01,6.9,1111122 
NERRS,ioos:station:NOAA.NERRS:marscwq:1,2017-06-09T06:00:00Z,27.8383,-97.0503,6.12,6.4,1111122 
NERRS,ioos:station:NOAA.NERRS:marscwq:1,2017-06-09T07:00:00Z,27.8383,-97.0503,6.19,6.7,1111122 
NERRS,ioos:station:NOAA.NERRS:marscwq:1,2017-06-09T08:00:00Z,27.8383,-97.0503,6.23,6.5,1111122 
NERRS,ioos:station:NOAA.NERRS:marscwq:1,2017-06-09T09:00:00Z,27.8383,-97.0503,6.25,6.7,1111122 
NERRS,ioos:station:NOAA.NERRS:marscwq:1,2017-06-09T10:00:00Z,27.8383,-97.0503,6.27,6.7,1111122 
NERRS,ioos:station:NOAA.NERRS:marscwq:1,2017-06-09T11:00:00Z,27.8383,-97.0503,6.28,6.6,1111122 
NERRS,ioos:station:NOAA.NERRS:marscwq:1,2017-06-09T12:00:00Z,27.8383,-97.0503,6.3,6.6,1111122 
NERRS,ioos:station:NOAA.NERRS:marscwq:1,2017-06-09T13:00:00Z,27.8383,-97.0503,6.3,6.6,1111122 
NERRS,ioos:station:NOAA.NERRS:marscwq:1,2017-06-09T14:00:00Z,27.8383,-97.0503,6.28,6.6,1111122 
NERRS,ioos:station:NOAA.NERRS:marscwq:1,2017-06-09T15:00:00Z,27.8383,-97.0503,6.3,6.6,1111122 
NERRS,ioos:station:NOAA.NERRS:marscwq:1,2017-06-09T16:00:00Z,27.8383,-97.0503,6.3,6.7,1111122 
NERRS,ioos:station:NOAA.NERRS:marscwq:1,2017-06-09T17:00:00Z,27.8383,-97.0503,6.28,6.8,1111122 
NERRS,ioos:station:NOAA.NERRS:marscwq:1,2017-06-09T18:00:00Z,27.8383,-97.0503,6.27,7.0,1111122 
NERRS,ioos:station:NOAA.NERRS:marscwq:1,2017-06-09T19:00:00Z,27.8383,-97.0503,6.28,7.2,1111122 
NERRS,ioos:station:NOAA.NERRS:marscwq:1,2017-06-09T20:00:00Z,27.8383,-97.0503,6.25,7.1,1111122 
NERRS,ioos:station:NOAA.NERRS:marscwq:1,2017-06-09T21:00:00Z,27.8383,-97.0503,6.18,6.9,1111122 
NERRS,ioos:station:NOAA.NERRS:marscwq:1,2017-06-09T22:00:00Z,27.8383,-97.0503,6.15,7.1,1111122 
NERRS,ioos:station:NOAA.NERRS:marscwq:1,2017-06-09T23:00:00Z,27.8383,-97.0503,6.07,7.3,1111122 
NERRS,ioos:station:NOAA.NERRS:marscwq:1,2017-06-10T00:00:00Z,27.8383,-97.0503,5.97,7.4,1111122 
NERRS,ioos:station:NOAA.NERRS:marscwq:1,2017-06-10T01:00:00Z,27.8383,-97.0503,5.94,7.4,1111122 
NERRS,ioos:station:NOAA.NERRS:marscwq:1,2017-06-10T02:00:00Z,27.8383,-97.0503,5.92,7.5,1111122 
NERRS,ioos:station:NOAA.NERRS:marscwq:1,2017-06-10T03:00:00Z,27.8383,-97.0503,5.89,7.2,1111122 
NERRS,ioos:station:NOAA.NERRS:marscwq:1,2017-06-10T04:00:00Z,27.8383,-97.0503,5.93,7.0,1111122 
NERRS,ioos:station:NOAA.NERRS:marscwq:1,2017-06-10T05:00:00Z,27.8383,-97.0503,6.0,6.8,1111122 
NERRS,ioos:station:NOAA.NERRS:marscwq:1,2017-06-10T06:00:00Z,27.8383,-97.0503,6.07,6.8,1111122 
NERRS,ioos:station:NOAA.NERRS:marscwq:1,2017-06-10T07:00:00Z,27.8383,-97.0503,6.15,6.3,1111122 
NERRS,ioos:station:NOAA.NERRS:marscwq:1,2017-06-10T08:00:00Z,27.8383,-97.0503,6.24,5.7,1111122 
NERRS,ioos:station:NOAA.NERRS:marscwq:1,2017-06-10T09:00:00Z,27.8383,-97.0503,6.28,5.6,1111122 
NERRS,ioos:station:NOAA.NERRS:marscwq:1,2017-06-10T10:00:00Z,27.8383,-97.0503,6.29,6.1,1111122 
NERRS,ioos:station:NOAA.NERRS:marscwq:1,2017-06-10T11:00:00Z,27.8383,-97.0503,6.31,6.6,1111122 
NERRS,ioos:station:NOAA.NERRS:marscwq:1,2017-06-10T12:00:00Z,27.8383,-97.0503,6.32,6.7,1111122 
NERRS,ioos:station:NOAA.NERRS:marscwq:1,2017-06-10T13:00:00Z,27.8383,-97.0503,6.31,6.7,1111122 
NERRS,ioos:station:NOAA.NERRS:marscwq:1,2017-06-10T15:00:00Z,27.8383,-97.0503,6.32,6.8,1111122 
NERRS,ioos:station:NOAA.NERRS:marscwq:1,2017-06-10T16:00:00Z,27.8383,-97.0503,6.33,6.8,1111122 
NERRS,ioos:station:NOAA.NERRS:marscwq:1,2017-06-10T19:00:00Z,27.8383,-97.0503,6.19,6.9,1111122 
NERRS,ioos:station:NOAA.NERRS:marscwq:1,2017-06-10T22:00:00Z,27.8383,-97.0503,6.17,7.6,1111122 
NERRS,ioos:station:NOAA.NERRS:marscwq:1,2017-06-10T23:00:00Z,27.8383,-97.0503,6.08,7.3,1111122 
NERRS,ioos:station:NOAA.NERRS:marscwq:1,2017-06-11T00:00:00Z,27.8383,-97.0503,6.01,7.4,1111122 
NERRS,ioos:station:NOAA.NERRS:marscwq:1,2017-06-11T01:00:00Z,27.8383,-97.0503,5.95,7.3,1111122 
NERRS,ioos:station:NOAA.NERRS:marscwq:1,2017-06-11T02:00:00Z,27.8383,-97.0503,5.92,7.3,1111122 
NERRS,ioos:station:NOAA.NERRS:marscwq:1,2017-06-11T03:00:00Z,27.8383,-97.0503,5.92,6.7,1111122 
NERRS,ioos:station:NOAA.NERRS:marscwq:1,2017-06-11T04:00:00Z,27.8383,-97.0503,5.91,6.2,1111122 
NERRS,ioos:station:NOAA.NERRS:marscwq:1,2017-06-11T05:00:00Z,27.8383,-97.0503,5.94,6.4,1111122 
NERRS,ioos:station:NOAA.NERRS:marscwq:1,2017-06-11T06:00:00Z,27.8383,-97.0503,6.04,6.2,1111122 
NERRS,ioos:station:NOAA.NERRS:marscwq:1,2017-06-11T07:00:00Z,27.8383,-97.0503,6.1,6.1,1111122 
NERRS,ioos:station:NOAA.NERRS:marscwq:1,2017-06-11T08:00:00Z,27.8383,-97.0503,6.18,6.0,1111122 
NERRS,ioos:station:NOAA.NERRS:marscwq:1,2017-06-11T09:00:00Z,27.8383,-97.0503,6.24,6.1,1111122 
NERRS,ioos:station:NOAA.NERRS:marscwq:1,2017-06-11T10:00:00Z,27.8383,-97.0503,6.3,6.3,1111122 
NERRS,ioos:station:NOAA.NERRS:marscwq:1,2017-06-11T11:00:00Z,27.8383,-97.0503,6.29,6.4,1111122 
NERRS,ioos:station:NOAA.NERRS:marscwq:1,2017-06-11T12:00:00Z,27.8383,-97.0503,6.31,6.7,1111122 
NERRS,ioos:station:NOAA.NERRS:marscwq:1,2017-06-11T13:00:00Z,27.8383,-97.0503,6.32,6.7,1111122 